TimeEDT,TemperatureF,Dew PointF,Humidity,Sea Level PressureIn,VisibilityMPH,Wind Direction,Wind SpeedMPH,Gust SpeedMPH,PrecipitationIn,Events,Conditions,WindDirDegrees,DateUTC
12:53 AM,28.9,25.0,85,30.33,10.0,Calm,Calm,-,N/A,,Clear,0,2013-04-07 04:53:00
1:53 AM,28.0,25.0,88,30.32,10.0,Calm,Calm,-,N/A,,Clear,0,2013-04-07 05:53:00
2:53 AM,28.0,25.0,88,30.30,10.0,Calm,Calm,-,N/A,,Clear,0,2013-04-07 06:53:00
3:53 AM,27.0,24.1,89,30.29,10.0,Calm,Calm,-,N/A,,Clear,0,2013-04-07 07:53:00
4:53 AM,27.0,24.1,89,30.29,10.0,Calm,Calm,-,N/A,,Clear,0,2013-04-07 08:53:00
5:53 AM,26.1,23.0,88,30.30,10.0,Calm,Calm,-,N/A,,Clear,0,2013-04-07 09:53:00
6:53 AM,28.0,25.0,88,30.32,9.0,Calm,Calm,-,N/A,,Clear,0,2013-04-07 10:53:00
7:53 AM,37.0,33.1,86,30.34,10.0,SSW,4.6,-,N/A,,Clear,200,2013-04-07 11:53:00
8:53 AM,44.1,32.0,63,30.33,10.0,South,11.5,-,N/A,,Clear,190,2013-04-07 12:53:00
9:53 AM,46.9,28.0,48,30.32,10.0,SW,13.8,-,N/A,,Clear,220,2013-04-07 13:53:00
10:53 AM,48.9,26.1,41,30.31,10.0,SSW,15.0,25.3,N/A,,Clear,210,2013-04-07 14:53:00
11:53 AM,48.0,18.0,30,30.28,10.0,SSW,20.7,32.2,N/A,,Clear,200,2013-04-07 15:53:00
12:53 PM,50.0,25.0,38,30.24,10.0,South,20.7,27.6,N/A,,Clear,170,2013-04-07 16:53:00
1:53 PM,51.1,30.0,44,30.22,10.0,South,18.4,32.2,N/A,,Clear,190,2013-04-07 17:53:00
2:53 PM,48.9,32.0,52,30.19,10.0,South,17.3,31.1,N/A,,Overcast,180,2013-04-07 18:53:00
3:53 PM,48.0,34.0,58,30.17,10.0,South,20.7,27.6,N/A,,Overcast,180,2013-04-07 19:53:00
4:53 PM,48.0,36.0,63,30.14,10.0,South,16.1,-,N/A,,Mostly Cloudy,180,2013-04-07 20:53:00
5:53 PM,46.9,37.0,68,30.12,10.0,South,16.1,23.0,N/A,,Overcast,180,2013-04-07 21:53:00
6:07 PM,46.4,37.4,71,30.11,10.0,South,16.1,23.0,N/A,,Overcast,180,2013-04-07 22:07:00
6:30 PM,46.4,37.4,71,30.09,10.0,South,12.7,21.9,N/A,,Scattered Clouds,180,2013-04-07 22:30:00
6:53 PM,46.0,37.0,71,30.10,10.0,South,15.0,25.3,N/A,,Clear,190,2013-04-07 22:53:00
7:53 PM,46.0,39.0,76,30.10,10.0,SSW,12.7,21.9,N/A,,Clear,200,2013-04-07 23:53:00
8:53 PM,46.0,39.9,79,30.09,10.0,South,13.8,20.7,N/A,,Mostly Cloudy,190,2013-04-08 00:53:00
9:53 PM,46.0,41.0,83,30.09,10.0,SSW,10.4,18.4,N/A,,Mostly Cloudy,200,2013-04-08 01:53:00
10:53 PM,46.9,41.0,80,30.07,10.0,SSW,8.1,19.6,N/A,,Partly Cloudy,200,2013-04-08 02:53:00
11:53 PM,48.0,42.1,80,30.06,10.0,SSW,15.0,24.2,N/A,,Clear,210,2013-04-08 03:53:00